KDAY Airport Diagram

We have created a template for each of the higher traffic airports in the vZID airspace. They include KCMH, KCRW, KCVG, KDAY, KIND, KLEX and KSDF. You wil find usefull information including the airport diagram, weather, and specific airport procedures.

KDAY Weather

[Source: ADDS]
METAR
KDAY 251256Z 33003KT 10SM SCT250 20/16 A3009 RMK AO2 SLP182 T02000161 =
TAF
KDAY 251120Z 2512/2612 11003KT P6SM SCT250 FM251600 12005KT P6SM SCT060 BKN250 FM260000 00000KT P6SM SCT250 =

DAY Operations

Calm Wind Configuration is runways 24L and 24R

Runway 24L typically departs south and west

Runway 24R typicall departs north and east

 

JSN Epic template designed by JoomlaShine.com